Skip Page Navigation
NASA JPL Caltech
NASA Logo - Jet Propulsion Laboratory + View the NASA Portal
+ Center for Near-Earth Object Studies
JPL Home Earth Solar System Stars & Galaxies Technology
JPL Solar System Dynamics
BODIES ORBITS EPHEMERIDES TOOLS PHYSICAL DATA DISCOVERY FAQ SITE MAP
IMPORTANT: The SSD Announcement email list is now available. Major changes are coming in the near future, including possible hostname and/or URL changes. To be notified of such changes, subscribe to this email list.

Please visit this page for more details.


JPL Small-Body Database Browser
Search: [ help ]  
58025 (2002 VW48)
Classification: Main-belt Asteroid          SPK-ID: 2058025
Ephemeris | Orbit Diagram | Orbital Elements | Mission Design | Physical Parameters | Discovery Circumstances ]

[ show orbit diagram ]
Orbital Elements at Epoch 2458600.5 (2019-Apr-27.0) TDB
Reference: JPL 17 (heliocentric ecliptic J2000)
 Element Value Uncertainty (1-sigma)   Units 
e .07779871471995811 4.6913e-08  
a 2.194533391704027 8.808e-09 au
q 2.023801514419424 1.0288e-07 au
i 2.980937411415197 4.3323e-06 deg
node 152.3110609182623 0.0001055 deg
peri 22.28320667137076 0.0001105 deg
M 266.861612682574 3.5004e-05 deg
tp 2458907.711826288009
(2020-Feb-28.21182629)
0.00011616 TDB
period 1187.440116251516
3.25
7.1489e-06
1.957e-08
d
yr
n .3031731832813934 1.8252e-09 deg/d
Q 2.365265268988631 9.4932e-09 au
  Orbit Determination Parameters
   # obs. used (total)      803  
   data-arc span      13775 days (37.71 yr)  
   first obs. used      1981-03-28  
   last obs. used      2018-12-14  
   planetary ephem.      DE431  
   SB-pert. ephem.      SB431-N16  
   condition code      0  
   norm. resid. RMS      .57149  
   source      ORB  
   producer      Otto Matic  
   solution date      2019-Jul-13 03:32:46  

Additional Information
 Earth MOID = 1.0292 au 
 Jupiter MOID = 2.59615 au 
 T_jup = 3.664 
[ show covariance matrix ]

Ephemeris | Orbit Diagram | Orbital Elements | Mission Design | Physical Parameters | Discovery Circumstances ]

Physical Parameter Table
Parameter Symbol Value Units Sigma Reference Notes
absolute magnitude H 15.9   n/a MPO351244  
diameter diameter 1.698 km 0.365 urn:nasa:pds:neowise_diameters_albedos::2.0[mainbelt] (http://adsabs.harvard.edu/abs/2011ApJ...741...68M)  
geometric albedo albedo 0.293   0.114 urn:nasa:pds:neowise_diameters_albedos::2.0[mainbelt] (http://adsabs.harvard.edu/abs/2011ApJ...741...68M)  

58025 (2002 VW48)          Discovered 2002-Nov-05 by LONEOS at Anderson Mesa
Reference: 20030318/Numbers.arcLast Updated: 2004-04-19

Alternate Designations
 2002 VW48 = 1981 FA1 
Ephemeris | Orbit Diagram | Orbital Elements | Mission Design | Physical Parameters | Discovery Circumstances ]
ABOUT SSD CREDITS/AWARDS PRIVACY/COPYRIGHT GLOSSARY LINKS
FirstGov 2020-Jan-18 18:00 UT
(server date/time)  
NASA Home Page
Site Manager:   Ryan S. Park
Webmaster  Alan B. Chamberlin